Wind_Speed
28 29 29 29 29 29 28 27 26 26 26 25 24 24 23 22 21 20 19 18 17 16 16 15 15 14 13 13 12 12 11 11 11 11 11 11 10 10 10 10 11 11 12 13 13 14 15 15 16 16 16 15 15 15 16 16 17 17 17 17 17 17 17 18 19 20 20 21 22 22 22 20 17 15 15 15 15 12 9 11 14 14 14 14 14 14 13 13
29 30 30 30 30 29 28 28 27 27 26 26 25 24 23 23 22 21 20 19 18 17 17 16 15 15 14 14 13 13 12 13 13 13 13 13 12 12 11 12 12 13 14 15 15 16 17 17 17 17 17 16 16 16 16 16 17 17 17 17 17 18 18 19 20 21 22 23 23 21 20 19 16 14 13 15 15 13 11 14 16 15 14 15 15 14 13 13
30 30 30 30 30 29 29 28 27 27 27 26 26 25 24 23 23 22 21 20 19 18 18 17 17 16 15 15 15 14 14 14 15 15 15 14 14 14 13 14 14 15 16 17 18 18 19 19 19 18 17 17 16 16 16 17 17 17 18 18 18 19 20 21 22 23 23 23 21 18 17 16 15 14 14 16 16 14 15 17 18 16 15 15 15 15 14 13
31 31 31 31 30 30 29 29 28 28 27 27 26 26 25 24 23 23 22 21 20 20 19 19 18 17 17 16 16 16 16 17 17 16 16 16 16 15 16 16 16 17 18 19 20 21 21 20 19 18 18 17 16 16 16 17 17 18 18 19 21 21 22 23 24 23 22 20 18 16 16 15 14 14 15 17 17 17 18 20 20 19 17 16 15 15 14 14
32 32 32 32 31 31 30 30 29 28 28 28 27 27 26 25 25 24 23 22 22 21 21 20 20 19 19 18 18 18 19 19 18 18 18 18 17 18 18 18 19 19 20 21 22 22 22 21 20 18 18 17 17 17 17 17 18 19 21 22 24 24 24 24 23 21 19 17 16 15 15 15 14 16 17 17 17 19 21 22 22 22 20 18 17 16 15 14
33 33 33 33 32 32 31 31 30 29 29 29 28 28 27 26 26 25 24 24 23 23 22 22 21 21 20 20 20 20 21 21 20 19 20 19 19 20 20 20 21 21 22 23 23 23 22 21 19 18 18 18 18 18 19 20 21 23 24 25 25 25 24 23 21 19 16 15 15 16 17 17 17 18 19 19 19 21 22 23 23 23 21 20 19 18 17 16
34 34 34 34 34 33 33 32 31 31 30 30 29 29 28 27 27 26 26 25 25 24 24 24 23 23 22 22 22 22 24 23 21 21 21 21 21 22 22 22 23 23 24 24 24 23 22 20 19 19 19 19 20 21 22 23 25 26 26 26 25 24 23 21 20 17 16 16 16 17 19 19 20 21 22 21 21 22 22 23 24 23 23 22 20 19 18 18
35 35 35 35 35 35 34 34 33 32 31 31 31 30 30 29 28 28 28 27 27 26 26 25 25 25 24 24 24 25 26 26 23 23 23 24 24 24 24 24 25 25 25 26 25 24 22 21 20 20 21 22 23 24 25 26 27 27 25 24 23 21 21 21 20 19 18 19 19 20 22 21 23 25 25 24 23 22 22 23 23 23 23 22 22 21 20 20
37 37 36 37 37 36 36 35 35 34 33 33 33 32 32 31 31 30 30 29 29 28 28 28 27 27 27 27 26 26 28 28 26 24 25 26 26 26 26 26 27 27 27 27 26 24 23 22 22 23 24 25 26 27 28 27 26 25 23 22 21 21 22 22 22 22 22 22 22 23 24 25 26 27 27 26 24 23 23 23 23 23 23 22 22 22 22 21
38 38 38 38 38 38 37 37 36 36 35 35 34 34 34 34 33 33 32 32 31 31 30 30 30 29 29 28 28 28 30 29 28 27 27 27 28 28 29 29 28 29 29 28 27 26 25 25 25 26 27 28 28 29 28 26 24 23 21 21 22 23 24 25 25 25 25 25 25 25 26 26 27 28 27 27 25 24 24 24 24 23 23 23 23 23 23 22
39 39 39 39 39 39 39 38 38 38 37 37 36 36 36 36 36 35 35 34 34 33 33 32 32 31 31 30 29 30 31 31 30 29 29 30 30 30 30 30 30 30 30 29 28 27 27 27 28 29 29 29 29 28 26 25 23 23 23 23 24 26 27 28 28 28 28 27 26 26 26 27 27 28 27 27 26 25 24 24 24 24 24 24 23 23 23 23
40 40 40 40 40 40 40 40 40 39 39 39 38 38 38 38 38 37 37 36 36 36 35 35 34 33 33 32 31 31 31 32 32 31 31 32 32 32 32 32 32 32 31 30 29 29 29 30 30 31 31 30 28 27 25 25 25 25 26 27 28 29 29 29 29 29 28 28 27 26 26 26 27 28 28 27 27 26 26 25 25 25 25 25 25 24 24 25
42 42 41 41 41 41 41 41 41 41 40 40 40 40 40 40 40 39 39 38 38 38 37 37 36 35 34 33 33 33 32 33 33 34 34 34 34 34 34 34 34 33 32 31 31 31 32 32 32 32 30 29 27 27 26 27 28 28 29 29 29 29 29 28 27 27 27 27 27 27 26 26 27 28 28 28 27 27 27 27 27 26 27 27 26 26 26 26
44 43 43 42 42 42 42 42 42 41 41 42 42 42 41 41 41 41 41 40 40 39 39 38 37 37 36 35 34 34 34 35 36 36 37 36 36 36 36 35 35 34 33 33 33 33 34 34 33 31 30 29 28 28 29 30 30 30 30 30 28 28 27 26 25 25 27 28 28 28 27 26 27 28 28 28 28 28 27 27 27 27 27 27 27 27 27 26
46 46 45 44 44 43 43 43 43 43 43 43 43 43 42 42 42 42 42 41 41 40 40 39 39 38 37 36 36 36 36 37 38 38 38 38 38 38 37 36 36 35 35 35 35 35 35 34 33 31 30 29 30 31 32 32 31 30 31 29 27 26 24 24 24 25 27 29 29 29 28 26 27 28 29 29 28 28 28 28 28 28 27 27 27 26 26 26
48 48 47 46 46 45 45 45 45 44 44 44 44 44 44 44 43 43 43 43 42 42 41 41 40 40 39 38 38 38 38 39 40 40 40 40 39 39 38 37 36 36 36 37 37 36 35 34 33 32 31 31 31 32 33 32 30 30 31 29 27 25 24 23 24 26 28 30 31 31 30 28 27 29 29 29 28 28 28 28 28 28 27 27 27 26 26 26
50 49 49 49 48 48 48 47 47 47 46 46 46 46 45 45 45 45 44 44 44 43 43 43 42 42 42 41 40 40 40 41 41 41 41 41 40 39 38 38 38 38 38 38 38 36 35 34 34 33 33 32 32 33 34 32 30 30 30 29 28 26 25 24 25 28 30 32 32 32 31 29 29 29 30 29 28 28 29 29 29 28 27 27 27 26 26 26
52 51 51 50 50 50 50 49 49 49 49 48 48 48 47 47 47 47 46 46 46 46 45 45 44 45 44 43 42 42 42 42 41 41 41 41 40 40 40 40 40 40 40 39 37 36 36 36 36 35 34 32 32 33 34 32 31 31 30 30 29 28 27 26 27 30 31 33 33 32 30 29 30 30 30 29 28 29 30 29 29 28 27 27 27 26 26 25
53 53 53 52 51 51 51 50 50 50 50 50 50 49 49 49 49 48 48 48 47 47 47 47 47 47 46 44 43 43 42 42 42 41 42 41 41 42 42 42 42 40 39 38 37 37 37 37 37 35 33 33 34 34 33 32 31 31 31 31 31 30 29 28 29 32 33 34 33 31 30 28 29 29 28 28 29 30 30 29 29 28 27 27 27 26 25 24
51 53 54 54 54 52 52 51 51 51 51 51 50 50 50 50 49 49 49 49 48 48 48 48 47 47 46 45 44 43 43 42 43 43 43 43 43 43 43 42 41 40 39 38 38 38 38 39 37 34 33 34 35 34 33 32 32 32 32 33 33 32 31 30 32 33 34 35 32 30 30 28 27 28 27 27 28 28 28 28 27 27 26 26 25 24 24 23
51 51 52 53 54 54 54 53 52 52 51 51 51 50 50 49 49 49 49 49 49 49 49 49 48 48 47 46 45 45 45 45 44 44 44 44 44 44 43 41 41 40 39 39 40 39 40 39 35 33 34 35 35 34 34 33 33 33 34 34 34 33 33 33 35 35 34 35 33 30 30 28 27 28 27 27 27 26 26 26 25 25 25 24 23 23 22 21
52 51 51 51 52 54 55 55 54 53 53 53 52 51 50 50 50 51 51 51 50 50 50 50 50 49 48 48 48 47 46 46 45 44 43 43 43 43 42 41 41 40 40 41 40 40 40 38 35 35 36 36 35 35 35 35 34 35 35 35 35 34 35 37 37 36 35 35 33 31 30 28 28 28 27 26 26 25 25 24 24 23 23 22 21 21 20 19
53 53 52 52 52 52 53 54 54 54 54 54 53 53 53 52 52 53 53 54 53 52 52 52 51 50 50 49 48 48 47 46 45 44 43 43 42 42 42 41 41 41 42 41 40 41 41 38 36 36 36 36 36 36 36 36 36 36 36 37 37 37 38 39 38 36 35 34 33 32 31 28 28 28 26 25 25 24 24 23 22 21 20 19 18 18 18 18
54 54 54 53 52 52 52 52 52 53 54 54 53 53 54 54 53 54 54 55 55 52 52 52 51 50 49 48 47 47 47 45 44 43 42 42 42 42 42 42 42 43 42 41 40 41 41 39 37 37 37 37 37 37 37 37 38 38 38 38 39 39 40 40 38 36 35 33 32 32 31 29 27 27 25 24 24 23 22 21 20 19 18 17 17 18 19 20
56 55 55 54 54 54 53 53 51 51 52 52 53 53 53 52 52 52 52 54 54 50 48 48 48 47 46 46 45 45 45 43 43 43 42 43 42 42 43 43 43 43 41 41 41 42 41 39 38 38 38 38 39 39 37 38 40 40 39 39 40 41 40 38 37 36 35 33 31 32 32 28 25 25 24 23 23 21 20 19 18 17 17 17 18 19 20 22
58 57 57 56 56 55 55 54 52 52 52 52 53 52 52 51 51 52 51 53 53 48 46 46 46 45 44 44 44 44 45 43 42 43 43 43 42 42 43 43 42 42 40 41 42 43 41 38 38 39 39 39 40 40 39 40 43 42 40 40 41 41 39 37 36 35 35 33 31 31 30 27 25 24 23 23 22 21 19 18 18 17 17 18 19 20 22 24
62 61 60 59 58 57 56 55 54 53 53 53 54 53 53 53 53 52 51 54 55 49 47 47 46 46 45 44 45 45 47 44 41 43 42 42 42 42 43 43 42 41 41 42 44 43 40 39 40 40 40 41 41 41 42 43 45 44 42 41 42 40 38 36 35 34 34 32 30 29 28 28 26 24 23 22 21 21 20 19 18 18 18 19 20 22 24 26
64 64 64 62 61 59 58 56 55 55 55 56 56 55 55 54 54 53 52 56 56 50 49 49 47 46 46 46 46 47 47 45 44 44 43 43 43 44 44 44 43 43 43 44 46 45 43 42 42 41 43 43 43 44 45 46 47 46 43 42 41 39 37 36 35 35 34 32 30 28 27 29 27 23 22 22 21 21 21 20 20 20 20 21 22 24 25 27
66 67 67 65 64 62 61 59 57 56 57 58 57 57 57 56 56 55 55 58 56 53 53 52 49 47 47 48 48 48 47 46 46 46 45 45 45 45 46 45 46 47 47 47 48 47 46 45 44 44 45 45 45 47 48 48 48 46 43 42 41 39 37 36 36 36 35 34 31 28 28 30 29 24 22 22 22 22 22 21 22 22 23 24 25 26 27 27
66 67 68 69 67 65 63 61 59 59 59 58 59 59 58 58 58 57 59 60 57 56 57 54 51 49 49 49 49 49 48 48 47 47 47 47 47 47 47 48 49 49 49 50 50 49 48 48 47 46 46 47 48 48 48 48 47 45 43 42 40 39 38 38 38 37 36 34 30 28 29 30 32 28 23 22 23 23 23 24 25 25 26 28 29 29 29 29
65 67 68 68 68 67 65 63 62 61 60 60 60 60 60 60 60 61 63 61 58 60 61 57 54 53 52 52 51 51 50 49 48 48 49 49 49 49 49 49 50 50 51 52 52 50 50 50 49 48 48 49 49 48 48 47 45 44 43 41 39 39 39 39 38 36 36 34 31 30 31 32 33 31 27 25 25 24 25 26 27 28 30 31 31 31 31 32
56 62 66 68 67 66 65 64 65 64 64 63 63 63 63 63 65 66 66 63 62 64 62 59 57 56 55 55 53 52 51 50 50 50 50 50 50 51 50 50 49 50 52 52 51 51 51 51 50 50 50 50 49 47 46 45 44 44 43 41 40 40 39 39 38 36 36 36 35 34 34 34 34 31 30 30 28 28 29 29 30 31 33 33 33 32 33 34
44 50 57 63 66 66 67 67 67 68 68 67 68 67 66 67 70 69 68 67 66 66 64 61 60 58 58 57 56 55 54 53 53 53 53 53 53 53 52 51 50 50 51 51 51 52 53 53 52 52 52 50 48 47 45 45 45 45 43 41 40 40 39 39 38 37 38 38 38 38 38 38 36 32 31 32 32 33 33 33 34 35 35 35 34 34 35 37
42 42 45 51 55 59 63 67 70 71 71 71 71 70 71 73 72 71 71 71 69 68 66 63 62 61 60 59 58 58 57 57 57 57 57 56 56 56 54 53 53 52 52 52 53 53 53 54 53 52 51 49 47 46 45 46 46 45 44 42 41 39 38 39 39 40 40 39 39 40 41 41 38 35 34 34 35 36 36 37 38 38 38 37 37 37 38 40
43 43 42 43 46 48 51 56 61 66 72 74 75 76 76 72 69 69 71 71 69 69 66 64 63 62 62 61 61 60 60 60 60 58 57 56 55 54 53 54 55 54 54 54 54 54 54 54 53 51 49 47 46 45 46 46 46 45 44 43 41 38 38 39 41 41 41 41 42 43 43 42 41 40 40 39 38 38 39 40 41 41 40 39 38 39 40 42
42 43 43 42 42 43 45 46 48 53 61 68 73 77 71 64 65 68 68 68 68 67 65 64 64 64 64 63 62 62 61 60 57 54 52 51 50 50 50 50 50 50 51 51 52 53 53 53 51 48 46 45 44 44 45 45 44 44 43 42 40 38 39 40 42 43 43 44 44 44 43 43 42 43 43 42 41 41 42 43 42 41 40 39 40 41 42 43
42 42 44 43 40 41 43 43 45 48 51 58 65 64 55 53 59 63 63 65 66 65 65 65 64 64 64 63 62 60 58 56 52 49 47 46 46 45 45 44 45 46 46 47 49 50 49 48 46 44 42 42 42 42 42 43 43 43 42 40 39 40 41 42 43 44 44 45 45 43 43 44 44 45 44 43 44 44 45 45 43 42 41 41 42 43 44 45
43 42 44 44 44 44 42 42 44 46 48 55 58 52 46 46 48 50 52 54 56 59 62 63 62 62 61 60 58 55 54 52 49 46 44 43 43 41 41 42 43 44 44 45 46 46 44 43 42 40 40 40 40 40 41 42 41 40 39 39 40 42 43 42 43 44 44 44 44 43 44 45 45 46 45 45 46 46 46 45 43 42 43 44 45 46 46 45
45 45 45 44 45 47 47 45 44 45 49 54 53 47 46 47 45 45 47 47 48 52 54 55 55 55 55 54 53 51 51 49 47 45 43 42 41 39 38 39 39 40 41 41 42 42 42 42 42 41 40 40 40 41 40 39 38 38 39 40 42 43 43 43 43 44 44 44 44 45 46 47 47 47 47 47 48 48 47 45 43 43 44 46 47 48 47 44
48 49 46 43 43 46 48 48 48 49 53 53 50 47 48 48 46 46 46 47 48 49 49 49 50 51 51 51 51 50 49 48 46 44 42 40 39 37 36 36 36 36 38 40 42 43 43 44 44 43 43 42 41 39 37 37 37 39 41 42 42 43 43 43 43 43 44 45 46 47 48 48 48 48 48 49 49 48 47 45 44 45 46 48 49 48 46 44
50 51 48 44 43 43 46 50 51 53 56 54 51 51 50 50 48 47 47 49 50 51 51 51 51 51 50 50 50 49 47 47 46 44 42 40 39 38 37 36 37 39 40 42 44 45 45 44 43 43 43 42 39 37 38 40 41 42 42 42 43 42 43 44 45 45 45 47 48 49 49 49 49 49 49 49 50 48 46 45 46 48 50 50 49 47 46 47
53 52 49 45 45 45 47 52 53 53 55 55 53 52 51 50 49 48 49 50 51 52 53 52 52 51 50 51 51 49 48 48 47 45 44 42 42 42 40 40 42 43 44 45 46 46 45 44 43 43 42 41 40 40 42 43 43 43 43 42 42 43 44 46 47 47 47 48 49 50 50 49 50 51 50 49 49 48 46 47 50 52 52 51 49 48 49 51
55 53 50 48 49 48 47 51 54 53 51 49 49 51 51 50 49 50 51 52 53 54 54 54 54 53 52 52 51 51 50 49 48 47 46 46 47 47 46 45 46 47 47 48 47 46 46 46 46 45 44 43 44 44 46 46 46 46 44 43 44 45 46 48 48 50 51 50 50 51 50 50 51 51 51 49 49 50 49 51 53 53 52 51 52 53 55 56
55 53 52 53 55 55 52 51 52 51 48 46 45 46 49 51 51 51 52 53 54 54 54 56 56 55 55 54 53 53 52 51 50 50 50 50 51 51 51 51 51 51 51 50 49 48 47 47 48 48 48 48 49 50 50 48 46 45 45 45 46 46 47 50 51 52 52 50 50 51 52 52 52 52 52 51 50 51 52 53 53 52 52 52 54 56 57 57
55 53 53 53 55 59 60 57 54 52 48 46 44 42 44 48 50 50 50 52 55 56 56 57 57 57 56 55 55 55 55 55 54 53 53 54 54 54 55 54 54 54 53 52 51 50 50 50 50 51 52 52 53 52 49 46 45 46 48 48 49 49 50 52 52 53 53 52 52 53 54 55 55 54 53 52 53 54 54 53 53 52 53 54 56 57 57 58
58 57 56 54 54 58 61 61 59 56 51 48 46 44 43 44 44 44 45 46 49 54 57 58 58 58 58 58 58 58 58 58 57 56 56 56 57 57 58 57 56 56 56 54 53 53 53 53 53 54 54 55 55 53 51 50 51 52 52 52 52 53 52 53 53 54 54 55 55 55 56 56 55 55 54 53 54 55 54 53 53 53 55 56 57 58 59 59
59 61 61 59 60 62 62 61 60 58 55 52 51 49 47 46 45 45 45 44 44 46 50 53 55 56 57 58 59 60 60 59 59 59 59 60 61 61 61 60 59 58 58 57 56 56 56 56 56 57 58 58 58 56 56 57 57 55 54 54 55 55 55 54 55 55 56 59 58 56 56 55 54 55 55 53 54 54 54 54 55 56 57 57 59 60 60 61
64 64 63 63 64 65 64 63 62 61 59 59 58 56 53 50 49 48 47 46 45 45 46 47 48 49 51 53 55 57 58 59 60 60 61 62 62 62 62 61 60 59 59 58 58 57 58 58 58 58 59 60 60 60 60 60 58 57 56 55 56 57 57 56 56 58 60 61 59 58 59 57 56 57 56 53 53 54 55 56 57 57 58 59 60 61 61 61
68 68 67 66 66 65 65 65 65 65 64 64 65 63 60 56 54 53 52 52 53 53 53 52 49 48 49 50 51 53 55 57 58 59 59 60 60 60 60 59 59 59 58 58 58 58 58 58 57 57 59 60 60 61 61 61 60 59 57 57 58 59 60 60 60 62 63 62 61 61 61 59 57 57 55 53 54 56 57 58 58 58 59 60 61 62 62 62
65 66 67 67 66 66 66 67 68 68 67 66 66 64 63 62 61 60 60 60 60 60 60 58 54 51 51 51 52 53 54 55 57 58 59 59 59 59 59 59 58 57 56 56 57 56 57 57 56 57 58 59 59 60 61 62 62 62 61 61 63 64 64 64 62 62 62 62 61 61 61 57 55 55 54 55 57 58 58 58 59 60 61 61 61 61 62 63
63 62 64 64 63 63 64 65 67 67 66 66 64 62 61 61 61 62 61 60 61 60 59 57 55 54 54 54 54 55 56 57 58 59 59 59 59 58 58 58 57 56 55 55 55 55 55 56 56 57 59 60 60 61 62 62 62 63 63 63 64 65 63 61 60 60 61 61 59 59 58 55 53 54 56 57 58 58 59 60 61 61 61 61 61 62 64 65
64 62 61 59 59 59 59 60 62 62 62 61 61 59 57 55 55 57 58 58 58 58 56 56 56 57 57 57 57 58 59 59 59 60 59 59 58 58 57 56 56 56 56 55 56 56 57 58 58 59 60 61 61 61 60 59 60 62 62 59 57 57 57 57 57 57 58 58 57 57 56 54 54 56 57 58 59 59 60 60 61 61 62 62 63 65 66 67
Wind_Direction
203 201 200 199 198 199 199 199 198 198 198 198 198 198 197 198 198 199 200 202 205 207 210 212 214 217 219 223 227 230 233 237 240 242 244 247 251 256 264 271 276 280 282 285 288 290 292 293 294 293 291 289 286 284 283 284 286 287 289 290 292 294 295 297 299 301 303 306 308 308 306 304 300 296 293 289 287 294 311 309 309 316 318 314 311 311 310 310
205 203 202 202 202 202 202 202 202 202 202 202 203 203 203 203 204 205 206 209 212 214 217 219 222 225 228 233 237 240 244 247 250 252 253 255 257 260 265 272 277 280 283 287 290 293 295 295 294 292 290 288 285 283 283 283 285 287 288 290 292 292 294 296 299 300 303 305 306 305 302 299 296 293 287 282 285 293 301 300 305 313 313 308 306 306 305 304
206 206 205 205 205 205 206 206 206 206 206 207 207 208 208 208 209 210 212 215 218 221 223 226 228 232 235 239 243 248 251 253 256 259 259 261 262 264 269 274 278 282 285 288 292 294 295 294 293 291 288 286 284 283 283 284 285 287 289 290 292 292 294 296 298 300 301 302 302 299 296 294 293 292 285 282 287 293 295 298 305 309 307 303 302 302 301 299
208 208 208 208 209 209 210 210 210 211 211 211 212 212 212 212 213 214 217 220 223 225 228 230 233 236 240 244 248 252 256 258 259 262 263 264 265 268 272 276 279 282 285 289 292 294 294 293 291 289 286 284 283 283 283 285 287 288 290 292 292 293 295 296 297 298 299 298 296 293 290 289 289 286 282 284 290 294 296 301 306 306 303 300 298 298 297 296
211 211 211 211 212 213 214 214 215 215 215 215 215 215 215 215 217 219 222 225 227 229 231 234 237 240 243 247 250 255 259 260 261 262 264 265 267 269 272 276 279 281 285 289 293 294 293 291 289 286 284 283 283 284 285 286 288 289 291 292 293 293 294 295 295 296 296 294 291 288 287 286 283 280 281 284 287 291 296 301 303 303 302 300 299 297 294 291
214 214 214 215 215 216 217 218 219 219 219 219 218 218 218 219 221 224 226 229 231 233 235 238 241 244 246 249 252 256 260 261 262 263 263 264 266 269 272 275 278 282 285 289 293 293 291 288 286 284 283 283 284 285 287 288 290 291 292 292 292 292 292 291 292 292 292 290 289 287 286 286 282 279 281 283 283 287 293 298 299 299 300 301 300 298 295 291
217 217 217 218 218 219 220 221 222 223 222 222 221 221 222 223 225 228 230 232 234 236 238 241 244 247 249 252 254 257 260 261 261 262 263 265 266 269 272 275 278 281 285 289 291 290 287 285 283 282 282 283 285 287 289 290 291 292 292 292 291 291 289 288 287 287 287 287 287 286 285 285 283 282 283 283 283 287 291 292 294 297 299 300 299 297 295 293
220 220 220 220 221 221 222 223 224 225 225 225 225 225 226 227 229 231 234 235 237 239 241 243 246 249 251 253 255 258 261 262 261 261 263 265 267 269 272 275 278 281 285 288 289 287 284 282 281 282 283 285 287 289 290 291 292 292 292 292 291 289 287 286 285 284 284 285 285 284 285 285 284 284 285 285 287 289 290 290 292 295 296 297 297 296 294 291
223 223 223 223 223 224 224 225 226 227 228 228 228 229 230 231 233 235 236 238 239 241 243 245 247 250 252 254 256 258 261 262 261 261 262 264 267 270 273 275 278 281 284 286 285 283 281 281 282 283 285 288 289 290 291 291 291 291 291 291 290 288 286 285 285 285 285 285 285 285 285 286 285 285 287 288 289 290 290 290 292 292 293 294 294 293 292 288
225 225 226 226 226 226 227 227 228 229 230 230 231 232 233 235 236 238 239 241 242 243 245 247 249 251 253 254 256 258 260 262 262 262 263 265 268 271 274 276 279 281 283 284 282 280 280 281 283 285 287 289 290 290 290 290 290 290 290 289 289 288 286 286 286 286 286 286 286 286 286 285 285 286 287 289 289 289 289 289 289 289 289 289 289 288 287 286
228 228 228 228 229 229 229 230 230 231 232 233 234 234 235 237 239 240 242 243 244 246 247 249 251 253 254 255 256 258 260 262 263 263 264 266 268 271 274 276 279 281 282 281 280 279 280 282 284 286 288 289 289 289 288 288 288 288 288 288 287 286 285 286 286 287 288 287 287 285 284 284 285 285 286 288 289 288 288 288 288 287 287 286 285 285 284 284
230 230 230 231 231 232 232 232 233 233 234 235 236 237 238 239 240 242 244 245 246 248 250 251 253 254 255 256 257 258 260 262 263 264 266 267 269 272 274 276 278 280 280 279 278 279 281 284 286 287 288 288 287 286 286 286 286 287 287 286 285 284 283 284 286 288 289 288 286 284 283 284 284 285 286 287 287 287 288 288 287 287 286 285 284 283 282 281
232 232 232 233 233 234 234 235 235 236 237 237 238 239 240 241 242 244 245 246 248 249 251 252 254 255 256 256 257 258 259 261 263 265 266 268 270 272 274 276 277 278 278 277 278 280 283 285 287 287 288 286 285 285 285 286 286 286 285 284 283 282 283 285 287 288 287 286 284 283 282 283 283 284 285 285 285 287 287 287 286 286 285 285 284 282 281 280
235 234 234 234 235 236 236 237 237 238 239 239 240 241 242 243 244 245 247 248 249 251 252 253 254 255 256 257 257 259 260 261 263 265 267 268 270 272 274 275 276 276 276 277 279 282 284 286 286 286 285 284 284 285 286 286 286 285 283 281 280 281 284 286 286 286 284 283 282 282 281 281 281 282 282 283 285 286 286 286 285 284 284 283 283 283 282 282
238 238 237 237 237 238 238 239 239 240 241 241 242 243 244 245 246 247 248 249 250 251 252 253 254 255 256 257 258 259 261 262 263 265 267 269 271 272 273 274 274 275 275 278 280 282 284 285 284 283 283 283 285 287 287 286 285 283 281 279 280 282 284 284 284 284 283 282 281 280 280 279 279 279 279 281 282 283 284 284 284 284 283 282 282 282 283 283
239 240 240 240 240 240 240 241 241 242 242 243 243 244 245 246 247 248 249 250 251 251 252 253 254 255 256 257 259 260 261 263 265 266 268 270 271 271 272 272 273 274 276 279 281 282 283 282 281 281 282 284 287 288 286 283 282 280 279 281 282 282 282 281 281 282 281 280 279 278 278 277 276 276 277 279 280 281 281 281 282 283 283 283 282 282 282 283
239 240 241 242 242 242 242 243 243 244 244 245 245 246 246 247 248 249 249 250 251 252 253 254 255 256 257 258 259 261 262 264 266 267 268 269 270 270 271 272 273 275 277 279 280 281 280 279 280 281 283 286 287 285 281 280 280 280 281 283 282 280 280 280 281 281 280 279 277 276 277 277 275 274 275 277 278 278 278 278 279 280 282 283 283 282 282 282
239 240 241 242 242 243 244 245 245 246 246 247 247 247 248 249 249 250 251 251 252 253 254 255 256 257 257 258 260 261 263 264 265 266 267 268 269 270 271 272 274 276 278 278 279 278 278 279 280 282 285 287 284 279 278 280 281 281 282 282 280 280 280 282 283 280 278 276 275 276 276 276 275 274 274 275 275 275 275 276 277 278 280 282 283 283 283 283
239 240 241 242 242 243 244 245 246 247 248 248 249 249 250 251 251 252 253 253 254 255 255 256 256 257 258 259 260 261 262 263 264 265 266 268 269 271 272 274 275 276 276 277 276 276 277 279 280 284 286 283 278 277 280 281 281 281 281 281 282 282 283 285 284 279 277 275 273 274 276 275 274 274 274 273 272 272 273 274 274 275 278 280 282 282 282 281
239 240 241 242 243 243 243 244 245 247 248 249 250 251 251 252 253 253 254 254 255 256 256 256 257 258 259 259 260 261 262 262 264 265 266 268 270 271 272 273 275 275 275 275 275 276 278 279 281 284 282 278 277 279 280 280 280 281 281 282 283 284 286 287 283 279 278 276 275 274 275 276 274 272 271 270 270 270 271 272 273 274 276 278 280 280 279 278
239 240 240 242 242 243 243 244 245 246 247 248 250 251 252 252 253 254 254 255 255 256 257 257 258 258 259 260 260 261 262 263 264 265 267 268 269 270 271 273 273 273 274 274 275 277 278 278 281 281 278 277 279 279 278 278 279 280 282 283 284 286 288 286 282 281 280 278 277 276 275 277 275 271 270 270 270 269 269 270 272 273 275 276 277 276 276 275
240 240 241 242 243 243 243 244 245 246 246 247 248 250 251 252 253 253 254 254 255 256 257 257 258 259 260 260 261 261 262 263 264 265 266 267 268 269 270 271 272 273 273 274 276 277 277 277 279 277 276 277 278 277 277 278 279 281 282 283 285 288 288 285 282 282 281 279 279 277 275 275 273 272 271 270 269 269 269 269 270 271 273 274 275 274 272 271
241 241 241 242 243 244 244 244 245 246 247 247 248 249 250 251 252 253 253 254 254 255 256 257 258 258 259 260 261 261 262 262 263 263 265 266 267 268 269 270 271 272 272 274 276 276 275 275 276 275 276 276 276 276 277 278 280 281 282 284 287 290 288 285 282 280 280 279 278 276 275 274 273 273 272 270 268 268 268 268 268 269 271 271 270 269 268 268
241 241 242 242 243 244 245 246 246 247 247 247 248 248 249 250 251 252 253 253 252 252 254 256 256 257 258 260 260 260 261 262 263 264 265 265 266 267 268 269 270 271 273 274 274 273 273 274 275 275 275 275 275 275 276 279 280 280 282 286 289 289 287 285 282 279 277 276 275 275 275 275 274 273 272 269 268 266 265 265 266 267 267 267 267 268 269 271
241 242 242 242 243 244 245 246 247 248 249 248 248 249 249 249 251 252 253 254 252 249 250 253 255 256 256 258 259 261 262 262 263 264 265 265 266 267 268 269 270 271 272 272 271 271 271 273 275 275 275 274 274 275 278 279 279 279 283 287 288 287 286 283 280 277 275 274 273 274 274 274 272 272 271 270 268 265 263 263 262 262 263 265 268 271 274 277
242 242 242 243 243 243 244 246 247 248 249 250 250 250 250 250 251 252 253 255 252 248 248 250 252 254 255 257 259 261 262 262 263 265 265 266 267 268 269 269 269 270 270 270 270 270 271 274 274 274 274 274 275 276 278 278 278 280 284 286 285 285 285 281 277 274 273 272 271 271 272 272 270 270 270 269 267 264 261 260 259 260 263 267 271 276 279 282
242 243 243 243 243 243 243 244 246 247 249 249 250 251 251 251 252 252 254 256 253 249 249 250 251 253 255 257 259 260 262 263 264 265 266 267 267 268 268 269 270 270 270 269 268 269 272 272 272 273 273 274 275 276 277 277 278 281 284 284 284 284 282 277 274 272 271 270 268 267 269 270 269 270 268 265 263 262 262 261 261 264 267 271 275 280 283 285
242 243 243 243 243 243 243 243 244 247 248 249 250 250 251 251 252 252 253 255 254 252 252 252 251 253 255 257 258 259 262 264 264 265 265 266 266 267 268 269 270 270 269 269 269 270 271 271 271 272 272 273 275 276 276 277 278 280 282 283 284 282 278 274 272 271 269 267 266 267 269 268 268 265 263 261 259 260 261 262 265 268 271 274 278 282 285 287
243 242 242 242 242 243 243 243 244 246 247 248 249 250 251 251 252 252 253 254 255 255 255 254 253 253 255 257 259 260 261 263 264 264 265 265 266 267 268 269 269 268 268 268 269 269 269 271 272 272 273 274 275 275 274 275 276 278 280 282 282 278 274 272 271 270 268 265 266 270 270 268 266 260 255 257 259 261 263 265 267 270 272 275 279 282 285 289
243 242 241 242 242 242 243 244 245 246 247 248 249 250 250 251 251 251 251 253 255 256 257 257 257 257 257 257 258 259 260 261 263 264 265 266 267 268 268 268 268 268 268 268 268 268 269 270 272 274 275 275 274 274 274 274 274 277 279 279 278 273 271 271 270 270 269 266 268 271 268 266 266 262 255 254 257 261 265 267 269 271 274 276 279 282 286 292
243 242 242 242 242 242 243 244 245 246 247 247 249 249 249 250 250 249 251 254 255 256 257 258 259 259 258 258 259 260 261 263 264 265 266 267 267 267 267 267 267 268 267 266 266 267 268 269 272 274 274 274 275 274 273 273 273 275 276 276 273 270 269 270 270 270 271 271 270 268 264 263 264 265 263 261 261 263 265 267 269 271 274 277 279 282 287 292
243 242 242 242 242 243 243 244 246 246 246 247 247 248 248 249 248 249 252 254 254 255 257 258 259 259 260 261 263 264 265 265 266 266 267 267 267 267 266 265 265 266 266 267 267 267 267 268 270 272 273 275 275 273 272 272 272 272 273 271 269 267 268 268 269 271 273 273 271 268 265 263 263 264 266 268 269 268 268 269 271 273 275 277 279 282 287 291
240 241 241 242 242 243 243 244 245 246 247 247 247 247 247 247 248 252 253 253 253 255 257 258 260 261 263 264 266 267 268 269 269 268 267 267 267 266 265 264 264 265 267 267 266 266 266 267 269 272 274 274 272 271 271 270 270 270 270 268 266 265 266 268 270 272 272 271 270 269 268 266 266 266 267 270 272 273 274 276 278 280 281 282 282 285 289 292
238 239 240 241 242 243 243 243 244 245 246 247 247 247 246 247 251 254 253 252 254 255 256 258 260 262 264 266 268 269 270 270 270 270 269 267 266 265 265 264 264 264 265 265 265 265 267 268 270 272 272 271 270 268 268 268 268 269 269 266 264 264 266 269 270 271 271 270 269 268 268 269 270 270 269 270 271 274 278 281 284 287 288 288 287 288 290 292
238 237 238 240 241 243 244 244 245 246 246 246 246 246 246 251 255 255 254 254 255 255 257 259 261 262 264 266 267 269 270 271 271 271 270 267 264 263 262 262 262 262 261 262 263 265 267 268 269 270 269 268 267 267 266 267 267 268 267 265 264 265 266 267 268 269 270 270 268 268 268 270 271 271 271 271 273 275 278 281 285 287 289 289 288 287 289 292
239 238 237 238 241 243 243 244 246 248 249 248 248 248 251 256 258 257 257 257 256 257 259 259 260 262 263 264 266 268 269 270 270 269 267 264 261 259 258 258 259 259 258 260 262 264 266 267 267 267 266 266 266 266 266 266 265 265 264 264 265 266 265 266 267 269 270 270 270 270 270 270 270 270 270 273 275 276 278 280 284 286 287 287 285 286 288 291
238 239 238 236 238 242 243 243 245 247 250 251 252 253 256 258 257 258 258 258 258 257 257 257 258 259 260 262 263 264 266 267 267 265 264 261 258 255 254 255 256 256 257 259 261 262 264 265 264 264 264 264 264 264 263 263 262 263 264 265 266 265 265 266 267 269 270 270 270 271 270 270 269 269 270 272 274 275 278 281 285 287 287 285 284 284 286 288
239 240 239 236 237 240 241 242 244 247 249 250 253 255 254 253 253 254 255 256 256 256 254 254 255 256 257 259 260 261 263 263 263 261 261 260 257 254 254 256 256 256 257 258 259 259 260 262 263 262 262 262 262 262 261 262 262 264 266 266 264 264 264 265 267 268 269 270 271 272 271 271 270 271 271 272 273 275 278 282 286 286 284 283 282 283 285 285
241 241 239 237 239 241 241 242 246 248 248 248 251 252 250 251 251 252 254 255 255 253 250 249 251 252 253 255 257 259 261 261 259 259 259 259 258 256 255 256 256 255 255 255 256 257 259 260 261 261 260 260 260 261 262 264 266 266 265 263 262 263 264 265 265 267 269 270 272 273 273 273 272 272 272 273 274 276 280 284 284 282 281 281 282 282 283 283
240 241 238 237 241 244 244 246 248 247 247 249 252 252 251 251 252 253 254 255 255 254 250 249 252 252 252 253 254 256 258 259 258 258 259 260 259 256 255 257 258 259 258 257 256 258 260 262 262 262 261 260 260 263 266 267 265 263 262 262 262 263 264 265 266 267 268 270 272 273 274 274 274 273 274 275 277 280 283 284 283 281 280 281 281 282 282 282
240 241 238 234 238 242 244 245 244 244 245 248 252 253 253 252 251 252 254 256 257 256 253 253 253 252 251 251 252 253 255 256 257 258 260 259 258 257 258 260 262 262 261 259 259 261 264 264 264 261 260 260 261 264 265 264 263 263 262 262 262 263 265 267 267 267 268 270 271 271 271 273 275 276 277 278 279 282 283 282 281 280 279 280 281 281 282 283
238 239 238 233 233 239 242 242 240 240 240 242 247 251 252 252 252 253 255 256 257 257 256 253 251 250 249 248 249 250 252 254 256 258 260 260 258 257 259 262 263 263 262 261 261 263 262 261 260 258 257 258 260 263 265 265 264 263 261 261 264 267 268 267 266 267 267 268 268 267 269 273 276 277 278 280 282 283 283 282 281 281 281 282 282 282 283 283
238 237 236 233 231 235 241 242 240 239 239 240 243 246 248 250 251 251 253 255 256 256 254 252 250 250 250 249 249 250 252 254 255 257 259 259 257 257 259 263 264 263 262 262 262 261 259 258 259 259 258 259 262 265 266 265 263 262 264 266 268 270 268 266 266 266 266 267 267 266 269 274 276 277 278 279 280 280 280 280 281 282 283 284 284 284 283 283
240 240 239 236 233 233 238 241 241 241 242 242 243 245 247 248 249 251 252 254 255 256 254 253 252 252 252 252 253 254 254 256 256 255 256 257 258 257 260 264 265 264 263 263 262 261 259 258 258 259 259 261 264 266 267 267 268 268 269 268 268 268 266 265 265 265 267 270 269 268 272 275 276 276 276 276 277 277 278 279 280 281 282 281 281 281 281 282
238 238 239 239 237 235 238 241 244 245 244 243 243 246 247 247 248 250 252 254 255 255 255 255 255 255 256 256 257 258 258 258 258 257 257 258 259 258 259 262 264 265 265 265 265 264 262 261 260 261 262 265 268 270 272 272 270 267 266 265 264 264 263 263 264 265 268 272 271 271 273 273 274 274 274 275 277 277 278 279 279 279 279 278 279 279 280 281
236 236 235 236 236 236 238 241 245 247 246 243 243 243 245 247 249 251 252 253 254 255 254 254 254 254 255 256 257 258 258 259 260 260 260 262 262 262 262 263 264 265 266 267 268 268 268 269 269 270 270 271 272 272 269 265 262 263 266 266 266 266 264 263 264 267 269 271 271 272 272 271 273 274 274 275 276 276 276 276 276 276 276 277 278 279 281 282
235 236 235 235 235 236 236 238 242 245 244 244 245 245 246 249 252 254 255 254 255 255 254 253 252 251 252 253 254 254 255 256 257 257 259 261 262 264 265 266 266 267 268 268 269 270 271 272 273 273 273 272 270 267 262 259 259 262 265 268 269 269 267 265 267 270 269 269 272 275 273 272 273 273 273 274 273 273 273 273 274 274 274 276 278 280 282 283
231 234 235 236 237 238 238 239 242 244 244 245 248 250 251 251 252 254 254 254 255 255 254 255 254 253 253 252 251 252 252 253 254 254 255 257 259 261 263 265 266 266 266 267 267 268 268 269 269 268 267 266 264 261 256 254 255 258 261 264 267 267 265 266 268 269 268 270 275 276 273 272 272 271 272 272 271 271 271 271 272 273 274 276 278 280 282 283
231 232 234 236 238 240 241 241 242 245 246 248 250 252 252 252 252 252 252 253 254 255 255 257 257 257 256 254 252 252 253 254 255 255 255 256 258 259 261 262 262 262 262 262 262 263 263 263 263 262 260 259 257 254 252 252 254 256 259 262 265 265 263 265 267 269 270 273 275 273 270 270 271 271 271 271 270 270 270 270 272 273 274 276 278 280 282 283
233 233 234 236 238 240 241 243 244 245 247 248 250 252 252 252 252 253 254 255 256 257 258 259 258 257 257 257 256 255 255 255 256 256 256 256 257 257 257 256 255 254 253 253 253 253 254 254 254 252 250 249 249 248 248 249 251 254 259 263 264 263 263 265 269 271 272 272 271 269 270 271 272 272 271 270 269 269 270 272 273 274 275 277 279 281 282 282
232 233 234 236 238 239 240 242 243 245 247 248 250 252 252 252 253 254 255 256 256 257 258 257 256 255 256 256 257 257 256 255 254 253 252 251 250 250 248 247 247 246 246 245 245 245 246 246 246 245 245 245 246 246 247 249 250 251 256 261 262 263 265 269 271 271 271 271 269 269 270 272 271 270 269 269 270 271 272 274 275 276 278 279 281 281 281 281
232 233 235 236 237 239 241 241 242 244 247 249 250 252 252 251 251 252 252 253 254 255 255 254 252 252 254 255 255 254 254 253 251 250 248 245 243 242 241 241 241 242 242 243 244 245 246 246 246 246 246 247 247 249 251 253 253 253 256 259 262 266 269 269 269 269 269 269 269 269 270 271 269 268 268 269 270 272 273 275 276 278 279 280 280 281 281 282
Height
5853 5854 5856 5857 5859 5860 5862 5863 5865 5866 5868 5869 5870 5871 5872 5873 5874 5876 5877 5878 5879 5880 5881 5882 5882 5883 5884 5885 5885 5886 5886 5887 5888 5888 5888 5889 5889 5890 5890 5890 5890 5891 5891 5891 5891 5891 5891 5890 5890 5890 5889 5889 5889 5889 5888 5888 5887 5887 5887 5887 5886 5886 5886 5885 5884 5883 5882 5882 5881 5880 5879 5878 5878 5877 5877 5876 5876 5878 5879 5878 5877 5878 5877 5876 5875 5874 5873 5872
5851 5853 5854 5856 5857 5859 5860 5862 5863 5865 5866 5867 5869 5870 5871 5872 5873 5874 5875 5876 5877 5878 5879 5880 5881 5882 5882 5883 5884 5884 5885 5885 5886 5886 5887 5887 5888 5888 5888 5889 5889 5889 5889 5889 5889 5889 5889 5889 5888 5888 5888 5887 5887 5887 5886 5886 5886 5885 5885 5885 5885 5884 5884 5883 5882 5881 5881 5880 5879 5878 5877 5876 5876 5876 5875 5874 5875 5876 5877 5876 5876 5876 5876 5874 5873 5872 5872 5871
5849 5851 5853 5854 5856 5857 5859 5860 5862 5863 5864 5866 5867 5868 5869 5870 5871 5872 5873 5875 5876 5877 5878 5878 5879 5880 5881 5881 5882 5882 5883 5884 5884 5885 5885 5886 5886 5886 5887 5887 5887 5888 5888 5888 5888 5888 5887 5887 5887 5886 5886 5886 5885 5885 5885 5884 5884 5884 5884 5883 5883 5882 5882 5882 5881 5880 5879 5878 5877 5876 5875 5875 5874 5874 5874 5873 5873 5875 5875 5874 5874 5874 5874 5873 5872 5871 5870 5869
5847 5849 5851 5852 5854 5855 5857 5858 5860 5861 5862 5864 5865 5866 5867 5868 5869 5870 5872 5873 5874 5875 5876 5877 5877 5878 5879 5879 5880 5880 5881 5882 5882 5883 5883 5884 5884 5884 5885 5885 5886 5886 5886 5886 5886 5886 5885 5885 5885 5884 5884 5884 5884 5883 5883 5883 5883 5882 5882 5882 5881 5880 5880 5879 5879 5878 5877 5876 5875 5874 5874 5873 5873 5872 5872 5871 5872 5872 5872 5872 5872 5872 5872 5871 5870 5870 5869 5868
5845 5846 5848 5850 5852 5853 5855 5856 5858 5859 5860 5862 5863 5864 5865 5866 5867 5868 5869 5871 5872 5873 5874 5875 5875 5876 5877 5877 5878 5878 5879 5879 5880 5881 5881 5882 5882 5882 5883 5883 5884 5884 5884 5884 5884 5884 5883 5883 5883 5883 5882 5882 5882 5882 5882 5881 5881 5881 5880 5880 5879 5878 5878 5877 5876 5876 5875 5875 5874 5873 5872 5872 5872 5871 5871 5871 5871 5870 5870 5869 5869 5869 5869 5869 5868 5868 5867 5866
5842 5844 5846 5847 5849 5851 5852 5854 5855 5857 5858 5859 5860 5862 5863 5864 5865 5866 5867 5868 5870 5871 5872 5873 5873 5874 5875 5875 5876 5876 5877 5877 5878 5879 5879 5880 5880 5880 5881 5881 5881 5882 5882 5882 5882 5881 5881 5881 5881 5881 5880 5880 5880 5880 5880 5879 5879 5879 5878 5878 5877 5876 5875 5875 5874 5874 5874 5873 5872 5871 5870 5870 5870 5869 5869 5870 5870 5869 5869 5868 5867 5866 5866 5866 5865 5865 5864 5864
5840 5841 5843 5845 5846 5848 5850 5851 5853 5854 5855 5857 5858 5859 5860 5861 5862 5864 5865 5866 5867 5868 5869 5870 5871 5872 5873 5873 5874 5874 5874 5875 5876 5877 5877 5878 5878 5878 5879 5879 5879 5879 5880 5880 5879 5879 5879 5879 5879 5879 5878 5878 5878 5878 5878 5877 5877 5876 5875 5875 5874 5874 5873 5872 5872 5872 5872 5871 5871 5869 5868 5868 5867 5867 5867 5868 5868 5868 5867 5866 5865 5864 5863 5863 5863 5862 5862 5861
5837 5838 5840 5842 5844 5845 5847 5848 5850 5851 5853 5854 5855 5856 5858 5859 5860 5861 5862 5863 5865 5866 5867 5868 5869 5870 5871 5871 5872 5872 5872 5872 5874 5875 5875 5875 5875 5876 5876 5877 5877 5877 5877 5877 5877 5877 5877 5877 5877 5877 5876 5876 5876 5875 5875 5875 5874 5873 5873 5872 5871 5871 5870 5870 5870 5870 5870 5869 5869 5867 5866 5866 5865 5864 5864 5865 5865 5865 5864 5864 5863 5862 5861 5860 5860 5860 5859 5859
5834 5835 5837 5839 5840 5842 5843 5845 5846 5848 5849 5851 5852 5853 5855 5856 5857 5858 5859 5860 5862 5863 5864 5865 5866 5867 5868 5869 5870 5870 5869 5870 5872 5873 5873 5873 5873 5873 5874 5874 5874 5874 5874 5875 5875 5875 5875 5874 5874 5874 5874 5874 5873 5873 5872 5872 5871 5871 5870 5869 5869 5868 5868 5867 5867 5867 5867 5867 5866 5865 5864 5863 5862 5861 5861 5861 5862 5862 5861 5860 5860 5859 5859 5858 5857 5857 5856 5856
5830 5832 5834 5835 5837 5839 5840 5842 5843 5845 5846 5847 5849 5850 5851 5853 5854 5855 5856 5857 5859 5860 5861 5862 5863 5864 5865 5866 5867 5867 5867 5867 5869 5870 5870 5870 5871 5871 5871 5871 5872 5872 5872 5872 5872 5872 5872 5872 5872 5872 5872 5871 5871 5870 5870 5869 5869 5868 5868 5867 5866 5866 5865 5864 5864 5864 5864 5864 5863 5863 5862 5861 5859 5858 5858 5858 5859 5859 5858 5857 5857 5856 5856 5855 5855 5854 5853 5853
5827 5829 5830 5832 5834 5835 5837 5838 5840 5841 5843 5844 5845 5847 5848 5849 5851 5852 5853 5854 5855 5857 5858 5859 5860 5861 5862 5864 5865 5864 5864 5865 5866 5867 5867 5867 5868 5868 5868 5869 5869 5869 5869 5869 5869 5869 5869 5869 5869 5869 5869 5868 5868 5867 5867 5866 5866 5866 5865 5865 5864 5863 5862 5861 5861 5861 5861 5861 5860 5860 5859 5858 5857 5856 5855 5855 5855 5855 5855 5855 5854 5853 5853 5852 5852 5851 5851 5850
5823 5825 5827 5829 5830 5832 5833 5835 5836 5838 5839 5840 5842 5843 5845 5846 5847 5848 5849 5851 5852 5853 5854 5855 5857 5858 5859 5860 5861 5861 5862 5862 5862 5863 5864 5864 5865 5865 5865 5866 5866 5865 5866 5866 5866 5866 5866 5866 5866 5866 5866 5865 5865 5864 5864 5864 5863 5863 5863 5862 5861 5860 5859 5859 5858 5858 5857 5857 5857 5856 5856 5855 5854 5853 5853 5852 5852 5852 5852 5851 5851 5850 5849 5849 5849 5848 5848 5847
5819 5821 5823 5824 5826 5828 5829 5831 5833 5834 5835 5837 5838 5840 5841 5842 5843 5845 5846 5847 5848 5849 5851 5852 5853 5854 5856 5857 5858 5858 5859 5859 5859 5860 5860 5861 5862 5862 5862 5862 5862 5862 5862 5863 5863 5863 5863 5863 5863 5862 5862 5862 5862 5861 5861 5861 5860 5860 5859 5859 5858 5857 5856 5856 5856 5855 5854 5853 5853 5853 5853 5852 5851 5850 5849 5849 5849 5849 5848 5848 5847 5847 5846 5846 5845 5845 5845 5844
5815 5816 5818 5820 5822 5824 5825 5827 5828 5830 5831 5833 5834 5836 5837 5838 5839 5841 5842 5843 5845 5846 5847 5848 5849 5850 5852 5853 5854 5855 5855 5856 5856 5856 5857 5858 5858 5858 5859 5859 5859 5859 5859 5859 5859 5860 5859 5859 5859 5859 5859 5858 5858 5858 5858 5857 5857 5856 5855 5855 5855 5854 5854 5854 5853 5852 5851 5850 5849 5849 5850 5850 5849 5847 5846 5846 5846 5845 5845 5844 5844 5844 5843 5842 5842 5841 5841 5841
5810 5812 5814 5816 5818 5819 5821 5823 5824 5825 5827 5828 5830 5831 5833 5834 5835 5837 5838 5839 5841 5842 5843 5844 5845 5846 5848 5849 5850 5851 5852 5852 5852 5853 5853 5854 5854 5855 5855 5855 5855 5855 5856 5856 5856 5856 5856 5856 5855 5855 5855 5855 5855 5855 5854 5853 5853 5852 5851 5851 5852 5852 5852 5852 5850 5849 5848 5846 5846 5846 5846 5847 5846 5844 5843 5843 5843 5842 5842 5841 5840 5840 5840 5839 5839 5838 5838 5838
5806 5808 5810 5812 5813 5815 5817 5818 5820 5821 5822 5824 5825 5827 5828 5829 5831 5832 5834 5835 5836 5838 5839 5840 5841 5842 5844 5845 5847 5847 5848 5848 5848 5849 5849 5850 5850 5851 5851 5851 5851 5852 5852 5852 5852 5852 5852 5852 5852 5852 5852 5852 5852 5851 5849 5849 5849 5848 5847 5848 5849 5849 5849 5849 5848 5846 5844 5843 5842 5842 5842 5843 5843 5841 5840 5840 5839 5839 5838 5837 5837 5836 5836 5836 5835 5835 5835 5835
5800 5803 5805 5807 5809 5810 5812 5814 5815 5816 5818 5819 5821 5822 5823 5825 5826 5828 5829 5831 5832 5833 5834 5836 5837 5838 5839 5841 5843 5843 5843 5844 5845 5845 5845 5846 5846 5846 5847 5847 5848 5848 5848 5848 5848 5848 5848 5848 5848 5848 5848 5849 5848 5847 5844 5845 5845 5844 5844 5844 5845 5845 5845 5845 5845 5843 5841 5839 5838 5838 5838 5839 5839 5838 5837 5837 5836 5835 5834 5834 5833 5833 5832 5832 5832 5832 5832 5832
5795 5797 5799 5801 5803 5805 5807 5809 5810 5812 5813 5815 5816 5817 5819 5820 5821 5823 5824 5826 5827 5829 5830 5832 5833 5833 5835 5837 5838 5839 5839 5840 5841 5841 5841 5841 5842 5842 5843 5843 5844 5844 5844 5844 5844 5844 5844 5843 5843 5844 5845 5845 5844 5842 5840 5841 5841 5841 5841 5840 5840 5841 5841 5842 5841 5839 5837 5835 5834 5834 5835 5835 5835 5833 5833 5833 5833 5832 5831 5830 5829 5829 5829 5829 5829 5829 5829 5828
5790 5792 5794 5796 5798 5800 5802 5804 5805 5807 5808 5810 5811 5813 5814 5815 5817 5818 5820 5821 5823 5824 5825 5827 5828 5829 5831 5833 5834 5834 5835 5836 5836 5837 5837 5837 5838 5838 5839 5839 5839 5840 5840 5840 5840 5840 5839 5839 5839 5841 5842 5840 5838 5837 5837 5838 5837 5837 5837 5836 5836 5836 5837 5838 5836 5834 5832 5831 5831 5831 5831 5831 5831 5830 5829 5829 5829 5828 5827 5826 5826 5826 5826 5825 5825 5825 5825 5825
5784 5786 5789 5791 5793 5795 5797 5799 5800 5802 5803 5805 5807 5808 5809 5810 5811 5813 5815 5816 5818 5819 5820 5822 5823 5825 5826 5828 5829 5830 5831 5831 5832 5832 5832 5833 5834 5834 5834 5835 5835 5835 5836 5836 5835 5835 5835 5835 5836 5838 5837 5835 5834 5834 5834 5834 5833 5833 5833 5832 5832 5832 5832 5833 5831 5829 5828 5826 5827 5828 5827 5827 5827 5826 5826 5825 5825 5824 5823 5822 5822 5822 5822 5822 5822 5822 5822 5822
5778 5780 5783 5785 5787 5789 5791 5793 5795 5796 5798 5800 5801 5802 5804 5805 5806 5808 5810 5811 5813 5814 5815 5817 5819 5820 5822 5823 5824 5825 5826 5826 5827 5828 5828 5829 5829 5829 5830 5831 5831 5831 5832 5831 5830 5831 5831 5830 5833 5833 5831 5830 5831 5831 5830 5830 5830 5829 5829 5828 5828 5828 5828 5827 5825 5825 5824 5822 5823 5824 5823 5823 5822 5821 5822 5821 5820 5820 5819 5819 5819 5819 5819 5819 5819 5819 5819 5819
5773 5775 5777 5779 5781 5783 5785 5788 5789 5791 5793 5794 5796 5797 5798 5799 5800 5802 5804 5805 5807 5809 5810 5812 5814 5815 5817 5817 5819 5820 5821 5822 5822 5823 5824 5824 5824 5825 5826 5826 5826 5827 5827 5826 5827 5827 5826 5827 5829 5828 5827 5827 5827 5826 5826 5826 5826 5825 5824 5823 5823 5824 5823 5821 5821 5820 5819 5818 5819 5819 5819 5819 5818 5817 5817 5817 5816 5816 5816 5815 5815 5815 5815 5815 5815 5816 5816 5816
5767 5769 5771 5773 5775 5777 5780 5782 5784 5786 5787 5789 5790 5791 5792 5793 5795 5796 5797 5798 5801 5804 5805 5807 5808 5810 5811 5812 5814 5815 5815 5816 5817 5818 5819 5819 5820 5821 5821 5822 5822 5822 5822 5823 5823 5822 5821 5823 5824 5823 5823 5823 5822 5822 5822 5821 5821 5821 5820 5819 5819 5820 5818 5816 5816 5816 5815 5814 5814 5814 5814 5815 5814 5813 5814 5813 5813 5812 5812 5812 5811 5812 5812 5812 5812 5813 5813 5814
5761 5763 5765 5768 5770 5771 5774 5776 5779 5781 5782 5783 5784 5784 5786 5788 5789 5790 5791 5791 5794 5798 5800 5801 5803 5804 5806 5807 5808 5809 5810 5811 5812 5813 5814 5815 5815 5816 5817 5817 5817 5817 5818 5819 5819 5817 5817 5818 5819 5819 5819 5819 5818 5818 5818 5817 5816 5816 5816 5816 5815 5814 5813 5811 5811 5811 5811 5810 5810 5810 5809 5810 5810 5810 5810 5809 5809 5809 5808 5808 5808 5808 5808 5809 5809 5810 5810 5810
5755 5757 5760 5762 5764 5766 5768 5771 5774 5775 5776 5777 5777 5778 5780 5782 5783 5784 5785 5784 5786 5792 5795 5796 5797 5799 5801 5801 5802 5804 5805 5806 5808 5808 5809 5810 5811 5811 5812 5812 5812 5813 5814 5814 5813 5812 5813 5814 5815 5815 5814 5814 5813 5813 5814 5813 5811 5811 5812 5812 5810 5809 5808 5807 5806 5806 5805 5806 5806 5805 5805 5806 5806 5806 5806 5805 5805 5805 5805 5805 5805 5805 5805 5806 5806 5807 5807 5807
5748 5751 5754 5756 5758 5760 5762 5766 5769 5769 5770 5772 5771 5773 5775 5776 5777 5778 5779 5778 5779 5786 5790 5791 5792 5793 5795 5796 5798 5799 5799 5801 5803 5804 5804 5805 5806 5807 5807 5807 5808 5808 5809 5809 5808 5807 5809 5811 5810 5809 5809 5809 5809 5809 5809 5808 5806 5806 5808 5808 5805 5804 5804 5803 5802 5801 5801 5801 5802 5801 5801 5802 5802 5802 5802 5802 5802 5802 5802 5802 5802 5802 5803 5803 5803 5803 5803 5803
5742 5745 5747 5749 5751 5755 5757 5761 5763 5764 5765 5765 5766 5768 5769 5770 5771 5773 5774 5771 5773 5780 5784 5786 5787 5788 5790 5792 5793 5793 5792 5796 5799 5799 5799 5800 5801 5801 5801 5802 5803 5804 5804 5804 5802 5802 5805 5806 5805 5805 5804 5804 5805 5805 5804 5803 5801 5802 5804 5803 5801 5800 5799 5798 5797 5797 5796 5797 5797 5798 5798 5797 5798 5798 5798 5799 5799 5799 5799 5799 5799 5800 5800 5800 5800 5800 5800 5799
5735 5738 5740 5742 5745 5749 5752 5754 5757 5758 5759 5758 5760 5762 5762 5764 5766 5767 5768 5765 5767 5774 5777 5779 5783 5784 5785 5786 5787 5788 5788 5791 5793 5793 5795 5795 5795 5796 5796 5797 5798 5798 5798 5798 5797 5798 5800 5800 5800 5800 5799 5799 5800 5800 5799 5798 5797 5797 5798 5797 5796 5796 5795 5794 5793 5792 5792 5792 5793 5795 5794 5793 5793 5795 5795 5795 5796 5796 5796 5797 5796 5796 5796 5796 5796 5796 5795 5795
5728 5730 5733 5735 5738 5742 5745 5748 5751 5751 5751 5752 5754 5755 5756 5759 5760 5761 5760 5759 5763 5768 5768 5771 5776 5779 5780 5781 5782 5783 5784 5786 5787 5788 5789 5789 5790 5791 5791 5792 5792 5792 5792 5792 5792 5792 5793 5794 5794 5795 5795 5795 5795 5794 5793 5793 5792 5793 5793 5792 5791 5791 5790 5789 5789 5788 5788 5788 5789 5791 5791 5788 5788 5790 5792 5792 5792 5792 5793 5793 5793 5793 5793 5793 5792 5792 5791 5791
5720 5723 5725 5727 5731 5735 5738 5742 5744 5744 5744 5745 5746 5748 5750 5751 5753 5754 5751 5753 5760 5761 5760 5764 5770 5773 5775 5775 5776 5777 5779 5780 5781 5783 5783 5783 5785 5785 5786 5786 5786 5786 5786 5786 5786 5787 5788 5788 5788 5789 5789 5789 5789 5788 5788 5788 5788 5788 5788 5787 5786 5785 5785 5784 5784 5784 5783 5783 5786 5787 5786 5784 5783 5785 5788 5788 5788 5788 5789 5789 5789 5789 5789 5788 5788 5787 5787 5787
5713 5716 5718 5720 5724 5728 5732 5736 5736 5736 5737 5738 5739 5740 5742 5744 5745 5743 5743 5750 5755 5752 5752 5758 5763 5765 5766 5768 5769 5771 5773 5775 5776 5777 5777 5778 5779 5779 5780 5780 5780 5780 5779 5779 5781 5782 5782 5782 5783 5783 5783 5782 5782 5783 5782 5783 5783 5783 5783 5782 5781 5780 5780 5780 5779 5780 5779 5780 5782 5782 5781 5780 5779 5780 5782 5783 5784 5784 5785 5785 5785 5785 5784 5784 5783 5782 5782 5782
5706 5708 5711 5714 5718 5721 5725 5728 5728 5727 5728 5731 5731 5732 5735 5735 5733 5734 5741 5747 5747 5743 5747 5752 5754 5757 5758 5760 5763 5765 5767 5768 5770 5771 5771 5772 5772 5773 5774 5773 5774 5773 5772 5773 5775 5776 5776 5776 5776 5776 5776 5777 5777 5777 5777 5778 5778 5777 5777 5777 5776 5776 5775 5775 5775 5776 5776 5776 5776 5776 5776 5775 5775 5776 5777 5777 5778 5779 5779 5780 5780 5780 5779 5779 5778 5778 5777 5776
5700 5702 5704 5707 5710 5714 5717 5719 5718 5718 5721 5723 5722 5723 5726 5723 5722 5731 5738 5738 5737 5739 5744 5746 5747 5749 5751 5752 5755 5757 5759 5760 5762 5763 5764 5765 5765 5766 5767 5767 5768 5768 5767 5768 5769 5769 5769 5769 5770 5770 5771 5772 5771 5771 5772 5772 5771 5771 5771 5771 5771 5771 5770 5771 5771 5772 5771 5771 5771 5771 5770 5770 5771 5773 5773 5773 5772 5772 5772 5773 5773 5773 5773 5773 5773 5772 5770 5769
5694 5696 5698 5700 5704 5706 5709 5710 5710 5711 5712 5713 5712 5714 5714 5713 5720 5730 5729 5729 5733 5734 5738 5740 5741 5742 5744 5745 5747 5749 5750 5751 5753 5755 5756 5757 5757 5759 5761 5761 5762 5762 5762 5762 5761 5762 5762 5762 5764 5765 5765 5765 5765 5766 5766 5765 5765 5765 5766 5766 5765 5766 5767 5766 5767 5766 5766 5766 5766 5766 5765 5765 5766 5768 5769 5768 5768 5767 5766 5766 5765 5766 5766 5766 5765 5764 5762 5760
5688 5690 5692 5695 5697 5700 5702 5703 5704 5703 5702 5703 5703 5701 5702 5710 5719 5721 5720 5724 5728 5728 5733 5736 5735 5735 5737 5738 5740 5740 5741 5743 5744 5746 5747 5748 5750 5751 5753 5754 5754 5755 5755 5755 5754 5755 5756 5756 5758 5758 5758 5759 5759 5760 5760 5759 5760 5760 5760 5760 5760 5762 5762 5762 5761 5761 5761 5761 5761 5761 5761 5762 5762 5762 5762 5763 5763 5762 5762 5761 5760 5760 5760 5760 5758 5756 5755 5754
5682 5684 5687 5690 5693 5695 5696 5697 5698 5696 5694 5694 5691 5690 5698 5709 5712 5713 5716 5720 5721 5724 5728 5729 5728 5729 5729 5731 5732 5733 5733 5735 5736 5738 5738 5740 5741 5743 5745 5746 5747 5747 5748 5749 5749 5749 5749 5749 5751 5751 5751 5753 5753 5753 5754 5754 5754 5754 5754 5755 5756 5757 5757 5756 5756 5756 5756 5755 5755 5756 5757 5758 5758 5757 5757 5757 5757 5757 5756 5756 5756 5756 5755 5754 5752 5750 5749 5748
5675 5678 5681 5686 5689 5689 5689 5691 5691 5689 5688 5685 5682 5686 5698 5704 5705 5707 5711 5712 5714 5718 5720 5720 5720 5722 5722 5723 5725 5726 5727 5728 5729 5730 5731 5732 5733 5736 5738 5739 5740 5741 5742 5743 5743 5743 5743 5743 5744 5745 5745 5747 5747 5747 5748 5748 5749 5749 5750 5751 5752 5751 5750 5751 5750 5750 5751 5750 5750 5751 5752 5752 5752 5752 5753 5753 5752 5751 5750 5750 5751 5750 5749 5747 5746 5744 5744 5743
5669 5672 5675 5680 5682 5682 5683 5685 5684 5683 5682 5677 5676 5685 5695 5696 5698 5701 5702 5704 5707 5708 5709 5711 5713 5714 5715 5716 5717 5720 5721 5721 5723 5723 5724 5726 5727 5730 5732 5733 5734 5735 5736 5736 5736 5737 5738 5738 5738 5739 5740 5740 5741 5742 5742 5743 5744 5745 5746 5747 5746 5745 5745 5746 5745 5745 5745 5745 5745 5746 5746 5746 5746 5746 5747 5747 5746 5745 5745 5745 5746 5744 5742 5741 5740 5739 5738 5737
5663 5664 5668 5674 5676 5676 5677 5678 5678 5676 5673 5670 5673 5682 5687 5688 5691 5694 5694 5697 5699 5699 5701 5704 5705 5706 5708 5710 5711 5713 5714 5715 5716 5717 5718 5720 5722 5724 5726 5727 5728 5729 5730 5730 5731 5732 5733 5732 5733 5733 5734 5735 5736 5736 5737 5739 5740 5741 5740 5740 5739 5739 5740 5740 5740 5741 5740 5740 5740 5741 5740 5740 5740 5740 5741 5740 5739 5739 5740 5740 5740 5738 5736 5735 5734 5732 5731 5731
5656 5657 5662 5668 5670 5670 5672 5671 5670 5668 5664 5665 5672 5678 5681 5682 5685 5687 5688 5690 5691 5692 5695 5697 5699 5700 5702 5704 5706 5707 5708 5709 5710 5712 5712 5714 5716 5718 5720 5721 5723 5724 5725 5725 5725 5726 5726 5726 5727 5728 5729 5729 5730 5732 5733 5735 5735 5734 5734 5734 5734 5734 5734 5735 5735 5736 5736 5735 5735 5735 5735 5734 5734 5733 5734 5733 5732 5734 5734 5733 5732 5730 5729 5728 5727 5725 5725 5724
5650 5649 5655 5662 5664 5665 5666 5661 5660 5660 5659 5662 5667 5671 5674 5676 5679 5681 5682 5683 5684 5686 5689 5691 5693 5695 5696 5698 5700 5701 5702 5703 5705 5706 5707 5709 5711 5712 5714 5716 5717 5719 5719 5719 5720 5721 5721 5721 5722 5723 5723 5724 5726 5728 5728 5728 5728 5728 5728 5728 5728 5729 5730 5730 5730 5731 5731 5730 5730 5730 5729 5728 5726 5725 5726 5726 5725 5727 5727 5726 5724 5723 5721 5721 5720 5719 5717 5716
5642 5643 5649 5655 5656 5658 5658 5652 5651 5653 5654 5657 5661 5664 5667 5669 5672 5674 5675 5676 5678 5680 5682 5684 5686 5687 5689 5691 5693 5695 5696 5697 5699 5700 5701 5704 5705 5706 5708 5710 5711 5712 5713 5713 5715 5716 5716 5716 5716 5716 5718 5719 5720 5722 5722 5721 5722 5722 5722 5723 5723 5725 5725 5724 5724 5725 5725 5724 5724 5724 5724 5722 5720 5718 5719 5720 5719 5719 5719 5718 5716 5714 5713 5713 5712 5710 5709 5708
5635 5639 5643 5646 5647 5649 5648 5643 5644 5647 5649 5654 5657 5657 5659 5662 5665 5667 5668 5669 5671 5673 5675 5677 5679 5681 5682 5684 5686 5688 5690 5691 5693 5694 5696 5697 5698 5700 5701 5702 5704 5705 5706 5707 5709 5710 5710 5709 5710 5711 5713 5714 5714 5715 5715 5715 5715 5716 5717 5719 5719 5719 5719 5717 5718 5718 5717 5718 5718 5718 5717 5715 5713 5713 5713 5714 5714 5712 5712 5711 5708 5707 5706 5704 5702 5701 5699 5699
5629 5633 5635 5637 5639 5640 5638 5636 5639 5643 5646 5650 5651 5651 5654 5656 5658 5660 5662 5663 5664 5666 5668 5670 5672 5674 5676 5678 5679 5681 5683 5684 5685 5688 5689 5690 5691 5693 5694 5695 5696 5697 5699 5700 5702 5703 5703 5704 5705 5705 5705 5707 5707 5707 5708 5709 5710 5712 5713 5713 5712 5712 5712 5710 5711 5711 5710 5712 5712 5711 5709 5708 5708 5708 5708 5708 5707 5706 5705 5704 5702 5700 5699 5696 5694 5692 5691 5691
5623 5625 5627 5629 5630 5631 5630 5631 5635 5638 5641 5644 5644 5646 5649 5650 5652 5655 5656 5657 5658 5660 5661 5663 5665 5667 5669 5671 5672 5673 5675 5676 5678 5680 5682 5683 5684 5686 5687 5688 5689 5690 5691 5693 5694 5695 5695 5696 5697 5697 5698 5699 5699 5700 5703 5705 5705 5705 5705 5705 5705 5705 5704 5703 5704 5703 5702 5704 5705 5704 5703 5703 5702 5702 5702 5701 5700 5699 5699 5697 5695 5693 5690 5688 5686 5685 5685 5685
5615 5616 5619 5622 5623 5623 5624 5627 5629 5631 5634 5637 5638 5640 5642 5643 5646 5649 5650 5651 5652 5654 5655 5656 5659 5661 5662 5664 5666 5667 5668 5669 5670 5672 5674 5675 5676 5677 5679 5680 5682 5682 5683 5685 5685 5686 5686 5687 5688 5689 5689 5690 5691 5693 5696 5696 5695 5696 5698 5698 5697 5697 5696 5695 5695 5695 5696 5696 5698 5698 5698 5699 5697 5694 5694 5695 5693 5691 5691 5689 5687 5685 5682 5680 5679 5679 5679 5678
5606 5607 5611 5615 5615 5615 5618 5621 5623 5624 5629 5631 5631 5633 5636 5637 5640 5642 5643 5645 5647 5648 5650 5650 5652 5655 5656 5658 5660 5660 5661 5663 5663 5665 5667 5668 5668 5669 5671 5672 5673 5675 5676 5677 5677 5677 5677 5678 5680 5681 5681 5682 5683 5684 5686 5686 5686 5688 5690 5690 5690 5688 5688 5688 5688 5689 5689 5688 5690 5691 5691 5692 5691 5687 5686 5688 5686 5684 5683 5681 5679 5677 5675 5674 5673 5672 5672 5672
5597 5599 5604 5606 5606 5608 5612 5617 5619 5620 5622 5623 5623 5626 5629 5631 5633 5636 5638 5639 5640 5642 5643 5644 5646 5649 5650 5652 5653 5653 5655 5656 5657 5658 5659 5660 5662 5662 5664 5665 5666 5667 5669 5669 5670 5670 5671 5672 5674 5674 5675 5675 5676 5676 5677 5678 5679 5680 5682 5683 5683 5681 5679 5681 5682 5681 5679 5680 5683 5684 5682 5684 5684 5680 5679 5680 5678 5676 5675 5672 5671 5670 5669 5668 5667 5666 5667 5666
5591 5594 5597 5599 5600 5603 5607 5610 5612 5612 5614 5616 5615 5618 5622 5624 5627 5629 5631 5632 5633 5635 5636 5637 5640 5643 5644 5645 5646 5647 5648 5649 5650 5651 5652 5654 5655 5656 5658 5659 5659 5660 5661 5662 5663 5664 5664 5666 5667 5667 5668 5669 5669 5670 5671 5671 5672 5673 5676 5677 5677 5674 5672 5673 5675 5674 5672 5675 5678 5674 5672 5676 5677 5673 5673 5672 5669 5667 5666 5665 5665 5664 5663 5662 5661 5661 5660 5659
5584 5588 5590 5593 5595 5597 5600 5602 5603 5604 5606 5608 5608 5612 5616 5618 5620 5622 5623 5624 5626 5627 5629 5631 5634 5636 5637 5638 5639 5640 5642 5643 5643 5644 5646 5647 5649 5650 5651 5652 5653 5654 5655 5655 5656 5657 5658 5659 5660 5661 5661 5661 5663 5664 5664 5664 5664 5667 5671 5672 5670 5666 5664 5665 5669 5669 5666 5667 5668 5663 5662 5669 5670 5665 5663 5663 5660 5659 5659 5658 5657 5656 5655 5655 5655 5654 5653 5650
5576 5580 5583 5586 5588 5589 5592 5594 5596 5597 5598 5600 5603 5606 5609 5611 5614 5615 5616 5617 5619 5620 5622 5624 5626 5628 5629 5631 5633 5634 5634 5636 5637 5638 5639 5641 5642 5644 5645 5646 5647 5648 5649 5649 5650 5651 5652 5653 5655 5655 5653 5654 5657 5656 5656 5657 5656 5659 5666 5667 5662 5660 5660 5661 5662 5662 5659 5657 5657 5655 5656 5661 5661 5657 5654 5653 5652 5652 5652 5651 5649 5648 5648 5648 5648 5646 5644 5642
5568 5571 5576 5579 5579 5581 5584 5586 5588 5589 5591 5595 5598 5600 5602 5604 5607 5608 5608 5609 5611 5613 5615 5616 5618 5620 5622 5625 5626 5626 5627 5628 5630 5632 5633 5635 5636 5637 5639 5640 5641 5642 5643 5644 5645 5646 5646 5647 5648 5648 5646 5648 5649 5648 5649 5649 5648 5653 5663 5664 5659 5657 5656 5654 5654 5653 5650 5648 5647 5647 5650 5652 5650 5648 5647 5645 5644 5645 5644 5643 5642 5641 5641 5641 5639 5637 5635 5633